Skip Page Navigation
NASA JPL Caltech
NASA Logo - Jet Propulsion Laboratory + View the NASA Portal
+ Center for Near-Earth Object Studies
JPL Home Earth Solar System Stars & Galaxies Technology
JPL Solar System Dynamics
BODIES ORBITS EPHEMERIDES TOOLS PHYSICAL DATA DISCOVERY FAQ SITE MAP
IMPORTANT: The SSD Announcement email list is now available. Major changes are coming in the near future, including possible hostname and/or URL changes. To be notified of such changes, subscribe to this email list.

Please visit this page for more details.


JPL Small-Body Database Browser
Search: [ help ]  
146442 Dwaynebrown (2001 QS320)
Classification: Main-belt Asteroid          SPK-ID: 2146442
Ephemeris | Orbit Diagram | Orbital Elements | Mission Design | Physical Parameters | Discovery Circumstances ]

[ show orbit diagram ]
Orbital Elements at Epoch 2458600.5 (2019-Apr-27.0) TDB
Reference: JPL 14 (heliocentric ecliptic J2000)
 Element Value Uncertainty (1-sigma)   Units 
e .1297701310622633 4.246e-08  
a 2.421206443006694 1.4953e-08 au
q 2.107006165568919 1.0366e-07 au
i 2.206501464503833 5.102e-06 deg
node 163.6601962677927 0.00015898 deg
peri 346.9440592605959 0.00016092 deg
M 90.70533207091675 2.5089e-05 deg
tp 2458253.781931101697
(2018-May-15.28193110)
9.5224e-05 TDB
period 1376.087843499667
3.77
1.2748e-05
3.49e-08
d
yr
n .2616112057820727 2.4235e-09 deg/d
Q 2.735406720444469 1.6893e-08 au
  Orbit Determination Parameters
   # obs. used (total)      364  
   data-arc span      6065 days (16.61 yr)  
   first obs. used      2001-08-20  
   last obs. used      2018-03-29  
   planetary ephem.      DE431  
   SB-pert. ephem.      SB431-N16  
   condition code      0  
   norm. resid. RMS      .56112  
   source      ORB  
   producer      Otto Matic  
   solution date      2019-Jul-13 15:03:43  

Additional Information
 Earth MOID = 1.11842 au 
 Jupiter MOID = 2.26051 au 
 T_jup = 3.501 
[ show covariance matrix ]

Ephemeris | Orbit Diagram | Orbital Elements | Mission Design | Physical Parameters | Discovery Circumstances ]

Physical Parameter Table
Parameter Symbol Value Units Sigma Reference Notes
absolute magnitude H 16.5   n/a MPO432921  

146442 Dwaynebrown           Discovered 2001 Aug. 20 by M. W. Buie at Cerro Tololo.
Dwayne C. Brown (b. 1960) served as the New Horizons NASA Public Affairs Officer for the New Horizons Mission to Pluto.
NOTE: some special characters may not display properly (any characters within {} are an attempt to place the proper accent above a character)
Reference: MPC batch dated 2018-05-29Last Updated: 2018-09-17
Ephemeris | Orbit Diagram | Orbital Elements | Mission Design | Physical Parameters | Discovery Circumstances ]
ABOUT SSD CREDITS/AWARDS PRIVACY/COPYRIGHT GLOSSARY LINKS
FirstGov 2019-Dec-09 00:21 UT
(server date/time)  
NASA Home Page
Site Manager:   Ryan S. Park
Webmaster  Alan B. Chamberlin